User: anonymous
Location: Roanoke
(37.2710°N, 79.9420°W)
Time: 12:16:18
(UTC-04:00)
Language:

FENGYUN 3A - Orbit

View from above orbital plane
View from above orbital plane
View from above satellite
View from above satellite

Ground track
Ground track

The orbit data is extracted from the following two-line orbital elements,

1 32958U 08026A   14274.07310855  .00000084  00000-0  60042-4 0  4139
2 32958 098.5430 329.2803 0008886 271.7904 088.2267 14.19473636328869
Epoch (UTC): 01 October 2014 01:45:16
Eccentricity: 0.0008886
inclination: 98.5430°
perigee height: 821 km
apogee height: 833 km
right ascension of ascending node: 329.2803°
argument of perigee: 271.7904°
revolutions per day: 14.19473636
mean anomaly at epoch: 88.2267°
orbit number at epoch: 32886

The dashed part of the orbit path shows where the satellite is in the earth's shadow,  

DLR